Home > Weather > Huelva > Past weeks

Flag for Spain Weather for the Past 2 Weeks in Huelva, Spain

Now
54 °F

Passing clouds.


Feels Like: 48 °F
Forecast: 48 / 58 °F
Wind: 22 mph from Northwest

Location: Rota Airport

Current Time: Feb 14, 2016 at 8:46:25 PM

Latest Report: Feb 14, 2016 at 8:00 PM


Visibility: 6 mi

Pressure: 30.01 "Hg

Humidity: 58%

Dew point: 39 °F

Location of HuelvaLocation

Historic Weather in Huelva — Graph

°F

Huelva Temperature Yesterday

Maximum temperature yesterday: 64 °F (at 3:00 PM)
Minimum temperature yesterday: 61 °F (at 12:00 AM)
Average temperature yesterday: 61 °F

High & Low Weather Summary for the Past Weeks

 TemperatureHumidityPressure
High70 °F (Feb 1, 2:00 PM)100% (Feb 2, 12:00 AM)30.60 "Hg (Feb 2, 12:00 AM)
Low45 °F (Jan 31, 7:00 AM)46% (Feb 2, 3:00 PM)29.95 "Hg (Feb 14, 7:00 AM)
Average58 °F81%30.29 "Hg
* Reported Jan 30 7:00 PM — Feb 14 7:00 PM, Huelva, Weather by CustomWeather, © 2016

Note: Actual official high and low records may vary slightly from our data, if they occured in-between our weather recording intervals... More about our weather records

Advertising

Huelva Weather History for the Previous 24 Hours

 ConditionsComfort  
Time TempWeatherWind HumidityBarometerVisibility
7:00 PM
Sun, Feb 14
54 °FPassing clouds.24 mph63%29.98 "Hg6 mi
6:00 PM55 °FScattered showers. Scattered clouds.25 mph63%29.95 "HgN/A
5:00 PM55 °FScattered clouds.30 mph63%29.95 "HgN/A
4:00 PM59 °FScattered clouds.23 mph59%29.95 "Hg6 mi
3:00 PM61 °FScattered clouds.26 mph59%29.95 "Hg6 mi
2:00 PM61 °FScattered clouds.28 mph63%29.95 "Hg6 mi
1:00 PM61 °FBroken clouds.24 mph63%29.98 "Hg6 mi
12:00 PM61 °FScattered clouds.23 mph72%29.98 "Hg6 mi
11:00 AM61 °FScattered clouds.25 mph72%29.98 "Hg4 mi
10:00 AM61 °FScattered clouds.23 mph83%29.95 "Hg5 mi
9:45 AM61 °FScattered clouds.24 mph83%29.95 "Hg5 mi
9:00 AM61 °FPassing clouds.22 mph83%29.95 "Hg5 mi
8:00 AM61 °FClear.23 mph83%29.95 "Hg5 mi
7:00 AM61 °FClear.16 mph83%29.95 "Hg6 mi
6:00 AM61 °FPassing clouds.16 mph88%29.98 "Hg6 mi
5:00 AM61 °FPassing clouds.13 mph88%29.98 "Hg5 mi
4:00 AM61 °FPartly cloudy.16 mph88%30.01 "Hg5 mi
3:00 AM61 °FPartly cloudy.18 mph94%30.01 "Hg5 mi
2:00 AM61 °FPartly cloudy.20 mph94%30.01 "Hg5 mi
1:00 AM59 °FPartly cloudy.22 mph100%30.04 "Hg5 mi
12:00 AM61 °FDrizzle. Mostly cloudy.20 mph88%30.07 "Hg5 mi
11:00 PM
Sat, Feb 13
61 °FDrizzle. Mostly cloudy.20 mph88%30.07 "Hg5 mi
10:00 PM61 °FOvercast.17 mph88%30.09 "Hg5 mi
9:00 PM61 °FPartly cloudy.21 mph88%30.09 "Hg5 mi
8:00 PM61 °FPartly cloudy.18 mph94%30.09 "Hg5 mi
Weather by CustomWeather, © 2016

See weather overviewHow to use our weather pages